Main page
METAR-TAF:

METAR-TAF

Airports :

Troll A, Norway

Oil platform

latitude: 60-38-42N, longitude: 3-43-29E, elevation: 20 m

Current weather observation

The report was made 43 minutes ago, at 01:50 UTC
Wind 12 kt from the West/Northwest
Temperature 4°C
Humidity 75%
Pressure 1014 hPa
Visibility 10 km or more

METAR: ENQA 170150Z AUTO 29012KT 9999NDV SCT019/// BKN050/// 04/00 Q1014 W05/S4

Time: 03:33 (02:33 UTC)


TAF: missing

Weather observations and forecasts of more than 4000 airports (METAR and TAF reports).

The available stations are represented by yellow and red dots on the map.

Hover mouse over dot to see the name of the station.

Then click to see weather observations and forecasts.

To change the map : click on the green buttons with a black cross to zoom in, on the green button with a dash to zoom out, or on the green arrows for adjacent maps.


METAR-TAF: